| time (UTC) | temp F | wind direction | speed MPH | gust MPH | rain 1hr in | rain 24hr in | rain mn in | humidity % | barometer mb |
| 20260505022806 | 44 | 302 | 3.0 | 5.0 | 0.00 | 0.01 | 0.00 | 84 | 1011.8 |
| 20260505022305 | 44 | 302 | 2.0 | 4.0 | 0.00 | 0.01 | 0.00 | 84 | 1011.8 |
| 20260505021808 | 44 | 302 | 2.0 | 4.0 | 0.00 | 0.01 | 0.00 | 83 | 1011.8 |
| 20260505021306 | 44 | 302 | 3.0 | 6.0 | 0.00 | 0.01 | 0.00 | 83 | 1011.9 |
| 20260505020805 | 44 | 302 | 4.0 | 7.0 | 0.00 | 0.01 | 0.00 | 83 | 1011.9 |
| 20260505020306 | 44 | 298 | 4.0 | 9.0 | 0.00 | 0.01 | 0.00 | 83 | 1011.9 |
| 20260505015805 | 44 | 309 | 5.0 | 11.0 | 0.00 | 0.01 | 0.00 | 83 | 1011.9 |
| 20260505015304 | 44 | 282 | 5.0 | 11.0 | 0.00 | 0.01 | 0.00 | 83 | 1011.9 |
| 20260505014806 | 44 | 309 | 6.0 | 11.0 | 0.00 | 0.01 | 0.00 | 83 | 1012.1 |
| 20260505014304 | 44 | 298 | 4.0 | 9.0 | 0.00 | 0.01 | 0.00 | 83 | 1012.1 |
| 20260505013804 | 44 | 293 | 4.0 | 7.0 | 0.00 | 0.01 | 0.00 | 83 | 1012.2 |
| 20260505013522 | 44 | 292 | 5.0 | 7.0 | 0.00 | 0.01 | 0.00 | 83 | 1012.2 |
| 20260505012804 | 44 | 289 | 4.0 | 9.0 | 0.00 | 0.01 | 0.00 | 83 | 1012.2 |
| 20260505012528 | 44 | 286 | 4.0 | 9.0 | 0.00 | 0.02 | 0.00 | 83 | 1012.2 |
| 20260505011805 | 44 | 292 | 4.0 | 9.0 | 0.00 | 0.02 | 0.00 | 83 | 1012.1 |
| 20260505011306 | 44 | 298 | 4.0 | 11.0 | 0.00 | 0.02 | 0.00 | 83 | 1012.2 |
| 20260505010804 | 44 | 306 | 5.0 | 11.0 | 0.00 | 0.02 | 0.00 | 84 | 1012.2 |
| 20260505005803 | 44 | 306 | 3.0 | 6.0 | 0.00 | 0.02 | 0.00 | 83 | 1012.2 |
| 20260505005524 | 44 | 309 | 1.0 | 4.0 | 0.00 | 0.02 | 0.00 | 83 | 1012.2 |
| 20260505004805 | 44 | 309 | 2.0 | 4.0 | 0.00 | 0.02 | 0.00 | 82 | 1012.4 |
| 20260505004303 | 44 | 310 | 3.0 | 4.0 | 0.00 | 0.02 | 0.00 | 82 | 1012.3 |
| 20260505003802 | 45 | 310 | 1.0 | 3.0 | 0.00 | 0.02 | 0.00 | 82 | 1012.3 |
| 20260505003302 | 45 | 310 | 1.0 | 5.0 | 0.00 | 0.02 | 0.00 | 82 | 1012.4 |
| 20260505002802 | 45 | 310 | 2.0 | 5.0 | 0.00 | 0.02 | 0.00 | 81 | 1012.4 |
| 20260505002303 | 45 | 300 | 3.0 | 5.0 | 0.00 | 0.02 | 0.00 | 81 | 1012.4 |
| 20260505001802 | 45 | 296 | 2.0 | 5.0 | 0.00 | 0.02 | 0.00 | 81 | 1012.4 |
| 20260505001527 | 46 | 296 | 2.0 | 5.0 | 0.00 | 0.02 | 0.00 | 81 | 1012.4 |
| 20260505000800 | 46 | 295 | 2.0 | 6.0 | 0.00 | 0.02 | 0.00 | 81 | 1012.5 |
| 20260505000301 | 46 | 313 | 3.0 | 6.0 | 0.00 | 0.02 | 0.00 | 81 | 1012.4 |
| 20260504235801 | 46 | 316 | 3.0 | 6.0 | 0.00 | 0.02 | 0.00 | 81 | 1012.4 |
| 20260504235300 | 46 | 314 | 3.0 | 4.0 | 0.00 | 0.02 | 0.00 | 82 | 1012.5 |
| 20260504234801 | 46 | 316 | 2.0 | 5.0 | 0.00 | 0.02 | 0.00 | 82 | 1012.4 |
| 20260504234528 | 46 | 314 | 2.0 | 5.0 | 0.00 | 0.02 | 0.00 | 82 | 1012.5 |
| 20260504233758 | 47 | 316 | 3.0 | 6.0 | 0.00 | 0.02 | 0.00 | 81 | 1012.5 |
| 20260504233515 | 47 | 317 | 3.0 | 6.0 | 0.00 | 0.02 | 0.00 | 81 | 1012.5 |
| 20260504233021 | 47 | 314 | 3.0 | 6.0 | 0.00 | 0.02 | 0.00 | 81 | 1012.4 |
| 20260504232256 | 47 | 313 | 3.0 | 9.0 | 0.00 | 0.02 | 0.00 | 81 | 1012.4 |
| 20260504231756 | 47 | 305 | 4.0 | 9.0 | 0.00 | 0.02 | 0.00 | 81 | 1012.4 |
| 20260504231255 | 47 | 336 | 3.0 | 7.0 | 0.00 | 0.02 | 0.00 | 81 | 1012.5 |
| 20260504231020 | 48 | 314 | 4.0 | 7.0 | 0.00 | 0.02 | 0.00 | 81 | 1012.4 |
| 20260504230255 | 48 | 293 | 3.0 | 9.0 | 0.00 | 0.02 | 0.00 | 81 | 1012.4 |
| 20260504225755 | 48 | 293 | 5.0 | 9.0 | 0.00 | 0.02 | 0.02 | 81 | 1012.4 |
| 20260504225254 | 48 | 316 | 6.0 | 10.0 | 0.00 | 0.02 | 0.02 | 81 | 1012.5 |
| 20260504224754 | 48 | 281 | 6.0 | 10.0 | 0.00 | 0.02 | 0.02 | 81 | 1012.5 |
| 20260504224254 | 48 | 293 | 5.0 | 11.0 | 0.00 | 0.02 | 0.02 | 81 | 1012.5 |
| 20260504223754 | 49 | 303 | 6.0 | 11.0 | 0.00 | 0.02 | 0.02 | 80 | 1012.5 |
| 20260504223254 | 49 | 289 | 5.0 | 9.0 | 0.00 | 0.02 | 0.02 | 80 | 1012.6 |
| 20260504222754 | 49 | 307 | 4.0 | 9.0 | 0.00 | 0.02 | 0.02 | 80 | 1012.7 |
| 20260504222254 | 49 | 292 | 6.0 | 9.0 | 0.00 | 0.02 | 0.02 | 80 | 1012.6 |
| 20260504221754 | 49 | 272 | 4.0 | 10.0 | 0.00 | 0.02 | 0.02 | 80 | 1012.8 |
| 20260504221254 | 49 | 290 | 5.0 | 10.0 | 0.00 | 0.02 | 0.02 | 81 | 1012.8 |
| 20260504220753 | 49 | 283 | 5.0 | 10.0 | 0.00 | 0.02 | 0.02 | 81 | 1012.7 |
| 20260504220253 | 49 | 288 | 5.0 | 11.0 | 0.00 | 0.02 | 0.02 | 81 | 1012.7 |
| 20260504215753 | 49 | 303 | 6.0 | 11.0 | 0.00 | 0.02 | 0.02 | 82 | 1012.6 |
| 20260504215518 | 49 | 293 | 6.0 | 10.0 | 0.00 | 0.02 | 0.02 | 82 | 1012.7 |
| 20260504214753 | 49 | 259 | 5.0 | 12.0 | 0.00 | 0.02 | 0.02 | 83 | 1012.7 |
| 20260504214253 | 50 | 293 | 6.0 | 12.0 | 0.00 | 0.02 | 0.02 | 83 | 1012.8 |
| 20260504213754 | 50 | 272 | 5.0 | 9.0 | 0.00 | 0.02 | 0.02 | 84 | 1012.8 |
| 20260504213252 | 50 | 288 | 6.0 | 9.0 | 0.00 | 0.02 | 0.02 | 84 | 1012.9 |
| 20260504212752 | 50 | 282 | 4.0 | 9.0 | 0.00 | 0.02 | 0.02 | 84 | 1012.9 |
| 20260504212251 | 50 | 258 | 5.0 | 9.0 | 0.00 | 0.02 | 0.02 | 84 | 1013.0 |
| 20260504211753 | 50 | 269 | 5.0 | 9.0 | 0.00 | 0.02 | 0.02 | 84 | 1012.9 |
| 20260504211252 | 50 | 300 | 4.0 | 9.0 | 0.00 | 0.02 | 0.02 | 84 | 1012.8 |
| 20260504210752 | 50 | 268 | 4.0 | 9.0 | 0.00 | 0.02 | 0.02 | 84 | 1012.9 |
| 20260504210252 | 51 | 281 | 4.0 | 9.0 | 0.00 | 0.02 | 0.02 | 84 | 1012.9 |
| 20260504205753 | 51 | 266 | 5.0 | 9.0 | 0.00 | 0.02 | 0.02 | 84 | 1013.0 |
| 20260504205252 | 51 | 295 | 5.0 | 7.0 | 0.00 | 0.02 | 0.02 | 84 | 1012.9 |
| 20260504204751 | 51 | 283 | 5.0 | 10.0 | 0.00 | 0.02 | 0.02 | 84 | 1012.9 |
| 20260504204509 | 51 | 290 | 6.0 | 10.0 | 0.00 | 0.02 | 0.02 | 83 | 1012.8 |
| 20260504203751 | 52 | 289 | 4.0 | 9.0 | 0.00 | 0.02 | 0.02 | 83 | 1012.9 |
| 20260504203252 | 52 | 289 | 4.0 | 9.0 | 0.00 | 0.02 | 0.02 | 83 | 1012.9 |
| 20260504202752 | 52 | 293 | 5.0 | 7.0 | 0.00 | 0.02 | 0.02 | 83 | 1012.9 |
| 20260504202251 | 52 | 281 | 5.0 | 7.0 | 0.00 | 0.02 | 0.02 | 83 | 1013.0 |
| 20260504201752 | 53 | 271 | 4.0 | 7.0 | 0.00 | 0.02 | 0.02 | 82 | 1012.9 |
| 20260504201251 | 53 | 271 | 5.0 | 9.0 | 0.00 | 0.02 | 0.02 | 82 | 1012.9 |
| 20260504200751 | 53 | 272 | 5.0 | 9.0 | 0.00 | 0.02 | 0.02 | 82 | 1012.9 |
| 20260504200250 | 53 | 289 | 4.0 | 9.0 | 0.00 | 0.02 | 0.02 | 81 | 1012.9 |
| 20260504195750 | 54 | 276 | 6.0 | 11.0 | 0.00 | 0.02 | 0.02 | 81 | 1012.9 |
| 20260504195250 | 54 | 314 | 6.0 | 11.0 | 0.00 | 0.02 | 0.02 | 81 | 1012.8 |
| 20260504194750 | 54 | 305 | 5.0 | 11.0 | 0.00 | 0.02 | 0.02 | 81 | 1012.8 |
| 20260504194250 | 54 | 331 | 5.0 | 11.0 | 0.00 | 0.02 | 0.02 | 81 | 1012.7 |
| 20260504193750 | 55 | 299 | 6.0 | 11.0 | 0.00 | 0.02 | 0.02 | 82 | 1012.7 |
| 20260504193250 | 55 | 243 | 4.0 | 5.0 | 0.00 | 0.02 | 0.02 | 82 | 1012.6 |
| 20260504192749 | 55 | 237 | 3.0 | 5.0 | 0.00 | 0.02 | 0.02 | 82 | 1012.6 |
| 20260504192250 | 55 | 235 | 2.0 | 6.0 | 0.00 | 0.02 | 0.02 | 82 | 1012.4 |
| 20260504191750 | 55 | 237 | 3.0 | 7.0 | 0.00 | 0.02 | 0.02 | 81 | 1012.4 |
| 20260504191249 | 55 | 233 | 4.0 | 7.0 | 0.00 | 0.02 | 0.02 | 81 | 1012.3 |
| 20260504190749 | 56 | 233 | 4.0 | 7.0 | 0.00 | 0.02 | 0.02 | 81 | 1012.3 |
| 20260504190518 | 56 | 235 | 5.0 | 7.0 | 0.00 | 0.02 | 0.02 | 80 | 1012.2 |
| 20260504185749 | 56 | 233 | 4.0 | 6.0 | 0.00 | 0.02 | 0.02 | 80 | 1012.3 |
| 20260504185249 | 56 | 234 | 3.0 | 7.0 | 0.00 | 0.02 | 0.02 | 81 | 1012.3 |
| 20260504184749 | 56 | 228 | 4.0 | 7.0 | 0.00 | 0.02 | 0.02 | 80 | 1012.3 |
| 20260504184249 | 56 | 223 | 4.0 | 6.0 | 0.00 | 0.02 | 0.02 | 80 | 1012.3 |
| 20260504184013 | 56 | 220 | 3.0 | 9.0 | 0.00 | 0.02 | 0.02 | 80 | 1012.3 |
| 20260504183248 | 56 | 223 | 4.0 | 9.0 | 0.00 | 0.02 | 0.02 | 79 | 1012.3 |
| 20260504182749 | 56 | 223 | 5.0 | 7.0 | 0.00 | 0.02 | 0.02 | 80 | 1012.3 |
| 20260504182248 | 56 | 241 | 2.0 | 6.0 | 0.00 | 0.02 | 0.02 | 79 | 1012.3 |
| 20260504181748 | 57 | 241 | 4.0 | 7.0 | 0.00 | 0.02 | 0.02 | 78 | 1012.3 |
| 20260504181248 | 57 | 243 | 4.0 | 7.0 | 0.00 | 0.02 | 0.02 | 78 | 1012.3 |
| 20260504180748 | 57 | 251 | 5.0 | 7.0 | 0.00 | 0.02 | 0.02 | 78 | 1012.4 |
| 20260504180247 | 57 | 265 | 2.0 | 5.0 | 0.00 | 0.02 | 0.02 | 78 | 1012.3 |
| 20260504175748 | 57 | 265 | 3.0 | 6.0 | 0.00 | 0.02 | 0.02 | 76 | 1012.3 |
| 20260504175247 | 57 | 265 | 3.0 | 6.0 | 0.00 | 0.02 | 0.02 | 77 | 1012.4 |
| 20260504174248 | 57 | 217 | 4.0 | 6.0 | 0.00 | 0.02 | 0.02 | 77 | 1012.4 |
| 20260504173747 | 57 | 210 | 2.0 | 6.0 | 0.00 | 0.02 | 0.02 | 77 | 1012.4 |
| 20260504173247 | 57 | 206 | 4.0 | 6.0 | 0.00 | 0.02 | 0.02 | 77 | 1012.4 |
| 20260504172747 | 57 | 203 | 4.0 | 7.0 | 0.00 | 0.02 | 0.02 | 76 | 1012.4 |
| 20260504172246 | 57 | 212 | 4.0 | 7.0 | 0.00 | 0.02 | 0.02 | 75 | 1012.3 |
| 20260504171748 | 58 | 202 | 5.0 | 7.0 | 0.00 | 0.02 | 0.02 | 76 | 1012.4 |
| 20260504171247 | 58 | 207 | 3.0 | 6.0 | 0.00 | 0.02 | 0.02 | 76 | 1012.4 |
| 20260504170746 | 58 | 206 | 3.0 | 6.0 | 0.00 | 0.02 | 0.02 | 75 | 1012.5 |
| 20260504170246 | 58 | 207 | 4.0 | 6.0 | 0.00 | 0.02 | 0.02 | 74 | 1012.4 |
| 20260504160245 | 60 | 171 | 5.0 | 10.0 | 0.00 | 0.02 | 0.02 | 73 | 1012.5 |
| 20260504150743 | 59 | 193 | 6.0 | 11.0 | 0.00 | 0.02 | 0.02 | 76 | 1012.9 |
| 20260504150243 | 58 | 214 | 5.0 | 10.0 | 0.00 | 0.02 | 0.02 | 75 | 1012.8 |
| 20260504141242 | 58 | 213 | 2.0 | 7.0 | 0.00 | 0.02 | 0.02 | 74 | 1013.2 |
| 20260504140742 | 58 | 213 | 3.0 | 11.0 | 0.00 | 0.02 | 0.02 | 72 | 1013.2 |
| 20260504140243 | 60 | 233 | 4.0 | 11.0 | 0.00 | 0.02 | 0.02 | 71 | 1013.2 |
| 20260504130741 | 59 | 207 | 3.0 | 7.0 | 0.00 | 0.03 | 0.02 | 75 | 1013.5 |
| 20260504130241 | 59 | 221 | 4.0 | 7.0 | 0.00 | 0.03 | 0.02 | 74 | 1013.4 |
| 20260504120239 | 57 | 162 | 2.0 | 7.0 | 0.00 | 0.04 | 0.02 | 75 | 1013.4 |
| 20260504110239 | 54 | 179 | 2.0 | 5.0 | 0.00 | 0.04 | 0.02 | 78 | 1013.6 |
| 20260504100504 | 54 | 134 | 2.0 | 9.0 | 0.01 | 0.05 | 0.02 | 83 | 1013.8 |
| 20260504081731 | 47 | 85 | 1.0 | 3.0 | 0.00 | 0.07 | 0.01 | 95 | 1013.6 |
| 20260504081230 | 47 | 85 | 1.0 | 4.0 | 0.00 | 0.08 | 0.01 | 95 | 1013.5 |
| 20260504080732 | 47 | 85 | 2.0 | 4.0 | 0.00 | 0.08 | 0.01 | 95 | 1013.5 |
| 20260504080450 | 47 | 85 | 2.0 | 4.0 | 0.00 | 0.08 | 0.01 | 95 | 1013.5 |
| 20260504070231 | 46 | 140 | 3.0 | 5.0 | 0.00 | 0.13 | 0.01 | 96 | 1013.1 |
| 20260504060231 | 45 | 20 | 4.0 | 6.0 | 0.00 | 0.16 | 0.01 | 96 | 1012.6 |
| 20260504050729 | 45 | 24 | 4.0 | 6.0 | 0.00 | 0.17 | 0.01 | 96 | 1012.4 |
| 20260504050229 | 45 | 23 | 4.0 | 6.0 | 0.00 | 0.18 | 0.01 | 96 | 1012.4 |
| 20260504045730 | 45 | 38 | 3.0 | 6.0 | 0.00 | 0.19 | 0.01 | 96 | 1012.4 |
| 20260504045229 | 45 | 32 | 3.0 | 7.0 | 0.00 | 0.20 | 0.01 | 96 | 1012.3 |
| 20260504044954 | 45 | 25 | 3.0 | 7.0 | 0.00 | 0.20 | 0.01 | 96 | 1012.3 |
| 20260504044228 | 45 | 0 | 3.0 | 7.0 | 0.00 | 0.21 | 0.01 | 96 | 1012.3 |
| 20260504043951 | 45 | 21 | 4.0 | 7.0 | 0.00 | 0.22 | 0.01 | 96 | 1012.3 |
| 20260504043227 | 45 | 18 | 4.0 | 7.0 | 0.00 | 0.22 | 0.01 | 96 | 1012.3 |
| 20260504042729 | 45 | 16 | 4.0 | 7.0 | 0.00 | 0.23 | 0.01 | 96 | 1012.3 |
| 20260504041728 | 45 | 28 | 3.0 | 7.0 | 0.00 | 0.24 | 0.01 | 96 | 1012.3 |
| 20260504041228 | 45 | 17 | 4.0 | 7.0 | 0.00 | 0.26 | 0.01 | 96 | 1012.2 |
| 20260504040728 | 45 | 39 | 4.0 | 6.0 | 0.00 | 0.27 | 0.01 | 96 | 1012.2 |
| 20260504040228 | 45 | 30 | 4.0 | 7.0 | 0.00 | 0.28 | 0.01 | 96 | 1012.2 |
| 20260504035728 | 45 | 25 | 4.0 | 7.0 | 0.00 | 0.29 | 0.01 | 96 | 1012.1 |
| 20260504035227 | 45 | 16 | 3.0 | 6.0 | 0.00 | 0.31 | 0.01 | 96 | 1012.1 |
| 20260504034728 | 45 | 14 | 5.0 | 6.0 | 0.00 | 0.31 | 0.01 | 96 | 1012.1 |
| 20260504034228 | 45 | 37 | 3.0 | 6.0 | 0.00 | 0.33 | 0.01 | 96 | 1012.0 |
| 20260504033727 | 45 | 31 | 5.0 | 6.0 | 0.00 | 0.34 | 0.01 | 96 | 1011.9 |
| 20260504033229 | 45 | 21 | 4.0 | 6.0 | 0.00 | 0.35 | 0.01 | 96 | 1012.0 |
| 20260504032727 | 45 | 28 | 4.0 | 7.0 | 0.00 | 0.35 | 0.01 | 96 | 1011.9 |
| 20260504032227 | 45 | 37 | 4.0 | 7.0 | 0.00 | 0.37 | 0.01 | 96 | 1011.9 |
| 20260504031727 | 45 | 39 | 3.0 | 6.0 | 0.00 | 0.39 | 0.01 | 96 | 1012.0 |
| 20260504031226 | 45 | 17 | 4.0 | 6.0 | 0.00 | 0.39 | 0.01 | 96 | 1012.1 |
| 20260504030726 | 45 | 16 | 3.0 | 6.0 | 0.00 | 0.40 | 0.01 | 96 | 1012.0 |
| 20260504030226 | 45 | 8 | 4.0 | 9.0 | 0.00 | 0.41 | 0.01 | 96 | 1012.0 |
| 20260504025226 | 45 | 32 | 4.0 | 7.0 | 0.00 | 0.42 | 0.01 | 96 | 1011.8 |
| 20260504024726 | 45 | 27 | 5.0 | 7.0 | 0.00 | 0.43 | 0.01 | 96 | 1011.9 |
| 20260504024227 | 45 | 41 | 4.0 | 6.0 | 0.00 | 0.43 | 0.01 | 96 | 1011.8 |